Measurement date,Total daily rainfall,Maximum daily air temperature,Minimum daily air temperature
Date ,Rainfall,Air temperature,Air temperature
Units: Year month day,Units: millimetre,Units: degree Celsius,Units: degree Celsius
2008-01-01,0,8.1,5.0
2008-01-02,0,5.0,0.7
2008-01-03,0,4.1,0.8
2008-01-04,3.6,7.7,3.2
2008-01-05,1.6,8.0,1.7
2008-01-06,0.6,8.3,1.6
2008-01-07,0,8.1,4.1
2008-01-08,1.6,10.0,4.5
2008-01-09,0,9.1,4.0
2008-01-10,0.2,10.6,4.3
2008-01-11,4.4,9.0,2.1
2008-01-12,8,9.7,1.7
2008-01-13,4.4,10.2,6.5
2008-01-14,1.2,9.6,6.1
2008-01-15,4.2,11.3,4.4
2008-01-16,4,8.0,2.1
2008-01-17,3.4,10.6,3.2
2008-01-18,2.2,12.8,6.5
2008-01-19,1.2,12.5,9.4
2008-01-20,0.6,13.3,10.8
2008-01-21,0.4,11.0,1.4
2008-01-22,0.2,10.0,1.3
2008-01-23,0.4,11.5,9.4
2008-01-24,7.4,10.1,3.1
2008-01-25,0,9.3,5.8
2008-01-26,0,10.2,5.2
2008-01-27,0.2,11.1,0.9
2008-01-28,0,6.8,1.3
2008-01-29,2.6,10.3,3.8
2008-01-30,0,6.8,2.7
2008-01-31,1.4,8.7,2.7
2008-02-01,0,7.1,-0.1
2008-02-02,0,5.9,-0.5
2008-02-03,3.2,6.4,2.2
2008-02-04,1.4,9.3,2.3
2008-02-05,2.4,12.3,5.9
2008-02-06,0,8.8,2.2
2008-02-07,0,10.9,4.1
2008-02-08,0,11.4,2.2
2008-02-09,0,12.4,2.1
2008-02-10,0,12.8,-1.2
2008-02-11,0,11.1,-1.2
2008-02-12,0.2,10.4,-1.8
2008-02-13,0.4,4.2,-0.2
2008-02-14,0,4.6,2.4
2008-02-15,0,6.6,-3.0
2008-02-16,0.2,5.5,-4.9
2008-02-17,0,7.8,-5.8
2008-02-18,0.2,5.6,-4.7
2008-02-19,0.2,1.6,-2.6
2008-02-20,0,4.4,0.0
2008-02-21,0.04,10.5,1.6
2008-02-22,0,12.7,6.8
2008-02-23,0,11.8,4.4
2008-02-24,1.11,12.7,3.6
2008-02-25,0.03,10.5,-0.4
2008-02-26,2.15,14.5,4.4
2008-02-27,0,15.9,2.4
2008-02-28,0,12.7,0.4
2008-02-29,1.65,10.9,1.6
2008-03-01,4.11,14.1,7.2
2008-03-02,0,17.3,5.2
2008-03-03,0,11.4,0.0
2008-03-04,0.36,8.8,-1.2
2008-03-05,0,11.8,-2.0
2008-03-06,0,16.8,6.4
2008-03-07,1.36,10.9,3.7
2008-03-08,1.4,8.2,7.5
2008-03-09,1.8,6.6,5.5
2008-03-10,6.2,6.7,5.7
2008-03-11,0,12.7,5.3
2008-03-12,2.07,12.3,5.6
2008-03-13,0.1,11.8,3.2
2008-03-14,0,18.2,6.8
2008-03-15,8.15,14.1,8.4
2008-03-16,11.29,8.4,5.6
2008-03-17,2.07,10.9,2.0
2008-03-18,0.1,8.0,3.2
2008-03-19,0,10.0,2.8
2008-03-20,8.15,10.5,3.2
2008-03-21,1.4,9.5,3.4
2008-03-22,5.8,4.6,0.9
2008-03-23,0,4.0,0.0
2008-03-24,1.6,7.6,1.6
2008-03-25,0,5.7,1.1
2008-03-26,1.6,7.0,3.5
2008-03-27,5.8,10.4,3.4
2008-03-28,4,9.7,3.6
2008-03-29,0.2,10.8,7.0
2008-03-30,0,13.0,3.2
2008-03-31,0,12.7,5.5
2008-04-01,0,13.4,6.1
2008-04-02,0,13.0,6.0
2008-04-03,0,14.3,7.6
2008-04-04,0,14.9,4.6
2008-04-05,1.6,9.0,0.0
2008-04-06,0.6,5.5,0.3
2008-04-07,0,7.6,-0.1
2008-04-08,0,9.9,0.3
2008-04-09,0,10.9,2.8
2008-04-10,0,11.7,2.4
2008-04-11,1.6,10.2,3.9
2008-04-12,0.2,11.3,1.6
2008-04-13,4.8,11.4,1.5
2008-04-14,2,9.4,0.0
2008-04-15,0.6,11.3,3.0
2008-04-16,0,9.6,-0.8
2008-04-17,0,9.2,1.6
2008-04-18,0,9.7,5.9
2008-04-19,1.6,7.9,6.7
2008-04-20,0.2,11.3,6.4
2008-04-21,0,14.8,4.8
2008-04-22,0,16.6,4.9
2008-04-23,3.4,15.2,5.8
2008-04-24,1,13.7,7.4
2008-04-25,0,14.9,7.8
2008-04-26,0,20.5,10.7
2008-04-27,1.6,17.6,6.6
2008-04-28,0,14.2,3.4
2008-04-29,8.8,11.4,4.2
2008-04-30,7.4,9.8,5.7
2008-05-01,2.8,13.7,4.3
2008-05-02,0.8,15.1,5.9
2008-05-03,0,17.8,11.4
2008-05-04,0.2,19.6,11.6
2008-05-05,0,20.4,16.5
2008-05-06,0,17.1,5.7
2008-05-07,0,20.7,7.5
2008-05-08,0,22.2,8.7
2008-05-09,0,22.4,11.2
2008-05-10,0,23.9,11.4
2008-05-11,0,24.2,10.6
2008-05-12,0,24.5,8.2
2008-05-13,0,23.1,8.8
2008-05-14,0,17.4,10.2
2008-05-15,0,16.7,8.2
2008-05-16,11.2,14.2,8.8
2008-05-17,0.6,11.2,8.5
2008-05-18,0.6,11.7,4.0
2008-05-19,0,12.7,1.6
2008-05-20,0,12.0,2.2
2008-05-21,0,13.3,3.0
2008-05-22,0,16.5,4.3
2008-05-23,0,19.4,7.5
2008-05-24,0,18.9,9.3
2008-05-25,1.4,18.5,10.8
2008-05-26,7.4,12.7,10.4
2008-05-27,11.6,12.9,9.1
2008-05-28,8.2,16.2,11.1
2008-05-29,0.8,17.8,11.3
2008-05-30,10.4,17.9,11.4
2008-05-31,0.2,17.0,10.6
2008-06-01,0,18.9,10.3
2008-06-02,0,14.3,11.4
2008-06-03,7.4,16.8,11.9
2008-06-04,12.2,14.2,10.9
2008-06-05,0,18.4,9.1
2008-06-06,0,20.5,10.6
2008-06-07,0,17.1,10.7
2008-06-08,0,16.1,11.0
2008-06-09,0,21.2,10.8
2008-06-10,0,23.7,13.7
2008-06-11,0,20.8,9.7
2008-06-12,2.6,17.7,10.1
2008-06-13,0.8,13.3,6.6
2008-06-14,0,15.7,5.6
2008-06-15,0,17.3,5.9
2008-06-16,0,15.8,6.2
2008-06-17,0,17.8,8.5
2008-06-18,0,19.2,9.4
2008-06-19,0.8,17.5,12.9
2008-06-20,0,18.8,9.9
2008-06-21,1,18.7,11.2
2008-06-22,3.6,18.0,12.2
2008-06-23,0,19.2,9.8
2008-06-24,0,18.3,9.2
2008-06-25,0,19.8,12.1
2008-06-26,0,20.4,9.8
2008-06-27,3.6,19.9,10.8
2008-06-28,0.2,19.4,15.9
2008-06-29,0,20.5,10.5
2008-06-30,0,20.9,9.8
2008-07-01,0,21.0,10.5
2008-07-02,0.2,17.7,10.8
2008-07-03,0,20.8,8.8
2008-07-04,0,21.3,14.7
2008-07-05,0.6,21.7,12.8
2008-07-06,2,17.0,11.9
2008-07-07,18.6,16.5,11.9
2008-07-08,1.2,18.1,10.4
2008-07-09,11.8,16.5,12.9
2008-07-10,0.6,20.2,12.4
2008-07-11,7.2,19.6,9.3
2008-07-12,0,16.1,7.2
2008-07-13,0,19.33,11.5
2008-07-14,0,19.6,15.78
2008-07-15,0,24.63,12.73
2008-07-16,1.8,18.38,11.43
2008-07-17,0.4,15.67,12.18
2008-07-18,0.2,18.3,14.6
2008-07-19,0,19.4,8.7
2008-07-20,0,16.7,8.4
2008-07-21,0,20.6,8.6
2008-07-22,0,21.7,14.8
2008-07-23,0,24.9,11.4
2008-07-24,0,25.1,11.7
2008-07-25,0,26.8,14.3
2008-07-26,0,25.8,16.8
2008-07-27,7,27.0,13.7
2008-07-28,0.2,27.8,15.7
2008-07-29,0,23.1,11.5
2008-07-30,0.2,26.3,15.0
2008-07-31,1,27.1,14.7
2008-08-01,1,22.6,13.8
2008-08-02,3.6,21.2,13.6
2008-08-03,1.4,20.7,11.0
2008-08-04,0,21.0,12.6
2008-08-05,10.4,19.1,14.9
2008-08-06,0.4,24.5,15.5
2008-08-07,0.6,21.5,14.2
2008-08-08,0.8,16.9,12.5
2008-08-09,4.2,17.7,15.0
2008-08-10,0,21.4,14.1
2008-08-11,5.6,20.0,13.0
2008-08-12,0.4,20.6,10.4
2008-08-13,2.8,17.6,10.4
2008-08-14,0,20.0,8.8
2008-08-15,0,21.0,10.6
2008-08-16,1.4,21.3,14.4
2008-08-17,3,20.1,12.9
2008-08-18,1,19.7,14.1
2008-08-19,0.4,19.7,14.5
2008-08-20,0,20.0,14.4
2008-08-21,4.6,21.5,11.3
2008-08-22,0,18.7,9.2
2008-08-23,2.8,19.7,13.2
2008-08-24,0,20.9,13.0
2008-08-25,0,21.0,15.7
2008-08-26,0,19.9,15.7
2008-08-27,0,19.7,15.8
2008-08-28,0,22.1,15.9
2008-08-29,0,22.4,14.0
2008-08-30,0,24.3,11.6
2008-08-31,5,20.9,11.3
2008-09-01,5.6,19.3,12.6
2008-09-02,1.8,17.1,10.4
2008-09-03,0.6,17.7,12.1
2008-09-04,12,14.1,12.4
2008-09-05,6,15.8,13.3
2008-09-06,3.6,17.3,13.3
2008-09-07,0,17.4,13.0
2008-09-08,1,17.3,11.7
2008-09-09,2.2,18.4,11.8
2008-09-10,0,19.8,15.0
2008-09-11,0.6,18.2,11.8
2008-09-12,2.6,15.0,9.8
2008-09-13,0.2,17.9,10.0
2008-09-14,0,17.3,8.7
2008-09-15,0,16.9,9.2
2008-09-16,0,15.2,10.1
2008-09-17,0,16.3,7.1
2008-09-18,0,17.3,9.0
2008-09-19,0,20.1,9.0
2008-09-20,0,19.3,7.1
2008-09-21,0,18.4,9.8
2008-09-22,0,16.8,10.7
2008-09-23,0,14.2,11.6
2008-09-24,0.2,16.3,12.0
2008-09-25,0.2,18.0,7.1
2008-09-26,0,18.6,5.5
2008-09-27,0,18.1,7.4
2008-09-28,0.2,17.2,6.5
2008-09-29,0.4,15.4,9.2
2008-09-30,0.8,14.3,10.5
2008-10-01,0,13.7,5.7
2008-10-02,1,11.7,5.5
2008-10-03,0.2,9.7,2.3
2008-10-04,10.4,14.9,6.5
2008-10-05,15.2,14.5,3.2
2008-10-06,0.2,14.9,8.0
2008-10-07,0.2,17.5,7.4
2008-10-08,0,15.3,6.7
2008-10-09,0,17.0,10.6
2008-10-10,0,17.8,9.9
2008-10-11,0,18.5,8.7
2008-10-12,0,21.5,10.0
2008-10-13,0,16.7,10.7
2008-10-14,0.2,15.7,12.3
2008-10-15,2.4,15.9,8.2
2008-10-16,0,12.2,4.1
2008-10-17,0,13.8,6.5
2008-10-18,0,14.0,8.1
2008-10-19,0,14.1,9.8
2008-10-20,9.4,15.7,7.2
2008-10-21,0,11.8,4.0
2008-10-22,0,11.9,6.4
2008-10-23,0.4,14.0,10.4
2008-10-24,0,12.4,3.9
2008-10-25,5.8,14.1,6.9
2008-10-26,2,12.6,4.2
2008-10-27,0.2,9.4,0.5
2008-10-28,7.4,7.1,-1.0
2008-10-29,0,6.5,0.3
2008-10-30,0,7.3,1.0
2008-10-31,0.2,7.9,0.2
2008-11-01,16.2,8.6,4.5
2008-11-02,0,10.1,6.9
2008-11-03,1.6,10.2,8.5
2008-11-04,0.4,12.3,8.2
2008-11-05,0.8,10.6,9.2
2008-11-06,2,10.2,8.3
2008-11-07,0,11.5,6.4
2008-11-08,5.2,12.7,5.4
2008-11-09,5.2,11.2,6.4
2008-11-10,10,8.5,5.8
2008-11-11,0,9.7,5.0
2008-11-12,0,10.4,4.0
2008-11-13,1.2,10.9,5.2
2008-11-14,0,13.2,8.9
2008-11-15,1.4,13.8,10.0
2008-11-16,2,9.8,1.6
2008-11-17,1.6,9.7,2.7
2008-11-18,0.2,10.9,5.1
2008-11-19,0,11.9,8.2
2008-11-20,0,11.5,8.4
2008-11-21,0.2,7.9,1.4
2008-11-22,0,4.0,-2.3
2008-11-23,4.4,6.6,-0.9
2008-11-24,1,6.1,2.1
2008-11-25,0,5.6,0.6
2008-11-26,0,9.4,5.6
2008-11-27,1.4,10.5,3.7
2008-11-28,0.2,5.9,-0.7
2008-11-29,2.2,2.9,-0.2
2008-11-30,9.4,4.4,1.2
2008-12-01,0.2,4.0,0.1
2008-12-02,0.8,4.2,-1.0
2008-12-03,1.2,3.9,-0.1
2008-12-04,1.6,7.9,1.2
2008-12-05,2.2,6.2,2.0
2008-12-06,0,6.1,-0.2
2008-12-07,0.2,5.2,0.2
2008-12-08,2.6,5.5,0.6
2008-12-09,0,4.9,0.1
2008-12-10,0.2,4.1,0.5
2008-12-11,0,4.2,-1.7
2008-12-12,0.4,7.5,-0.7
2008-12-13,9.2,4.1,1.2
2008-12-14,0,3.9,1.9
2008-12-15,0,5.0,1.6
2008-12-16,0.4,7.5,1.3
2008-12-17,0,8.3,2.7
2008-12-18,0.2,10.9,3.3
2008-12-19,0,10.7,3.1
2008-12-20,0,13.0,7.8
2008-12-21,0.2,11.8,8.6
2008-12-22,0,11.1,9.0
2008-12-23,0,8.4,6.2
2008-12-24,0,8.7,3.6
2008-12-25,0,6.3,0.0
2008-12-26,0,3.7,-2.2
2008-12-27,0.2,1.5,-2.1
2008-12-28,0.2,2.3,-1.1
2008-12-29,0,1.5,-1.7
2008-12-30,0,1.7,-3.4
2009-01-01,0.4,1.0,-0.8
2009-01-02,0,3.6,-2.9
2009-01-03,0,2.0,-2.4
2009-01-04,0.2,0.9,-2.0
2009-01-05,1.6,1.4,-5.4
2009-01-06,0,0.4,-5.1
2009-01-07,0,2.4,0.2
2009-01-08,0,3.3,-3.4
2009-01-09,0,-1.3,-4.4
2009-01-10,0.2,2.9,-4.5
2009-01-11,1,8.1,3.1
2009-01-12,1.4,9.3,5.4
2009-01-13,1,8.7,0.5
2009-01-14,0,5.1,0.2
2009-01-15,0.2,5.5,3.7
2009-01-16,0.4,8.6,5.2
2009-01-17,2.6,8.6,3.4
2009-01-18,2.2,6.4,3.4
2009-01-19,0.4,6.7,1.4
2009-01-20,0,5.4,0.4
2009-01-21,2.8,7.5,0.5
2009-01-22,2.4,9.1,3.8
2009-01-23,3.6,5.5,0.1
2009-01-24,1.6,6.1,0.5
2009-01-25,2.6,7.2,2.5
2009-01-26,0,6.3,1.3
2009-01-27,3.8,7.4,1.7
2009-01-28,2.8,6.1,1.6
2009-01-29,0,4.6,0.8
2009-01-30,0,5.3,1.6
2009-01-31,0,5.2,0.7
2009-02-01,0,1.5,-2.8
2009-02-02,3.6,1.9,-3.5
2009-02-03,0,2.4,-2.1
2009-02-04,0.2,2.9,-1.5
2009-02-05,7.6,0.8,0.1
2009-02-06,4.6,0.2,-5.4
2009-02-07,1.2,2.3,-4.1
2009-02-08,2.4,2.1,-2.5
2009-02-09,13.2,2.8,0.1
2009-02-10,0,3.6,-1.0
2009-02-11,0.4,4.7,-2.3
2009-02-12,6.2,2.5,-1.4
2009-02-13,0.2,4.7,-0.6
2009-02-14,0,5.8,-0.1
2009-02-15,0.8,6.6,3.4
2009-02-16,0,10.1,4.5
2009-02-17,0.4,10.4,5.7
2009-02-18,0.4,8.3,5.8
2009-02-19,0.4,10.2,2.4
2009-02-20,0,6.3,2.8
2009-02-21,0,11.2,4.2
2009-02-22,0.2,10.1,5.3
2009-02-23,0.6,9.7,6.5
2009-02-24,0,10.2,7.3
2009-02-25,0,9.9,4.8
2009-02-26,0.2,8.1,5.4
2009-02-27,0,13.3,6.5
2009-02-28,0,10.2,2.2
2009-03-01,0,10.0,1.1
2009-03-02,0,10.0,3.3
2009-03-03,6.8,10.3,3.2
2009-03-04,0,6.8,-1.4
2009-03-05,0,6.8,-0.6
2009-03-06,0,8.7,1.9
2009-03-07,1.2,11.4,4.9
2009-03-08,1.2,8.8,1.8
2009-03-09,4.8,9.5,5.1
2009-03-10,2.4,9.2,1.1
2009-03-11,0,12.0,3.4
2009-03-12,0,11.8,4.6
2009-03-13,0,10.9,5.8
2009-03-14,0,11.9,4.2
2009-03-15,0,13.2,5.3
2009-03-16,0,15.8,5.0
2009-03-17,0,11.3,-0.6
2009-03-18,0,14.3,1.7
2009-03-19,0,10.7,4.0
2009-03-20,0,10.9,1.3
2009-03-21,0,14.6,3.5
2009-03-22,0,13.2,6.5
2009-03-23,3.4,11.4,2.8
2009-03-24,1.2,9.8,4.9
2009-03-25,2.2,10.7,6.4
2009-03-26,0.4,13.2,3.2
2009-03-27,1.2,8.9,2.5
2009-03-28,1.6,8.1,0.3
2009-03-29,0,8.8,1.6
2009-03-30,0,11.8,6.4
2009-03-31,ND,ND,ND
2009-04-01,0,15.0,3.5
2009-04-02,0,13.2,4.5
2009-04-03,0,9.4,5.1
2009-04-04,0,15.6,3.9
2009-04-05,0,13.2,4.7
2009-04-06,0,16.1,6.4
2009-04-07,0.4,14.4,7.7
2009-04-08,0.4,14.5,5.3
2009-04-09,0,14.1,9.8
2009-04-10,4.2,15.0,8.4
2009-04-11,0.8,9.8,7.4
2009-04-12,0,11.1,7.8
2009-04-13,0,14.3,6.8
2009-04-14,2.6,14.9,6.8
2009-04-15,0.6,19.3,9.0
2009-04-16,5.8,11.4,7.3
2009-04-17,0,13.0,3.8
2009-04-18,0,13.2,5.5
2009-04-19,0,13.6,3.8
2009-04-20,0,16.0,1.9
2009-04-21,0,19.0,5.1
2009-04-22,0,17.3,6.5
2009-04-23,0,18.2,6.8
2009-04-24,0,17.0,6.9
2009-04-25,0,15.5,3.3
2009-04-26,0,16.7,4.5
2009-04-27,1.8,10.7,4.1
2009-04-28,0,13.5,2.2
2009-04-29,0,16.6,5.1
2009-04-30,0,16.3,5.1
2009-05-01,0,19.3,7.3
2009-05-02,0,17.3,7.9
2009-05-03,0,13.4,3.4
2009-05-04,0.4,12.3,9.6
2009-05-05,0,18.1,10.2
2009-05-06,0,17.8,9.8
2009-05-07,0,16.3,7.6
2009-05-08,0.4,14.6,5.9
2009-05-09,0,14.9,6.0
2009-05-10,0,17.5,4.8
2009-05-11,0,14.4,5.8
2009-05-12,0.2,16.0,6.2
2009-05-13,0.2,14.8,10.3
2009-05-14,1,15.2,10.2
2009-05-15,2.2,15.3,5.9
2009-05-16,4.8,15.8,6.0
2009-05-17,1.8,14.0,9.0
2009-05-18,1,15.0,8.7
2009-05-19,0.8,15.9,7.1
2009-05-20,0,17.3,8.3
2009-05-21,0,16.8,6.9
2009-05-22,0,16.5,9.0
2009-05-23,0,20.7,7.4
2009-05-24,0,21.5,9.5
2009-05-25,8,21.5,10.5
2009-05-26,0,15.8,7.7
2009-05-27,0.2,17.0,10.6
2009-05-28,0,21.5,10.9
2009-05-29,0,22.0,6.0
2009-05-30,0,20.7,7.8
2009-05-31,0,22.5,9.3
2009-06-01,0,23.0,7.8
2009-06-02,0,23.0,7.8
2009-06-03,0,22.5,9.3
2009-06-04,0,14.6,3.9
2009-06-05,0,15.0,8.1
2009-06-06,3.4,12.8,8.4
2009-06-07,0.8,15.1,8.3
2009-06-08,12,14.0,6.9
2009-06-09,0.6,14.5,9.0
2009-06-10,0.4,15.6,10.1
2009-06-11,10.8,15.9,10.8
2009-06-12,0,16.8,5.1
2009-06-13,0,19.4,12.9
2009-06-14,0,22.4,12.0
2009-06-15,0,22.1,11.4
2009-06-16,0.8,22.1,9.6
2009-06-17,0.2,21.1,10.1
2009-06-18,0.4,20.1,9.6
2009-06-19,0,17.1,8.7
2009-06-20,0,17.7,9.7
2009-06-21,0,17.6,10.0
2009-06-22,0,20.3,11.7
2009-06-23,0,20.3,11.5
2009-06-24,0,22.4,6.3
2009-06-25,0,22.8,10.4
2009-06-26,10,24.6,11.9
2009-06-27,10.4,22.4,14.6
2009-06-28,0.4,21.0,15.1
2009-06-29,0,24.1,14.3
2009-06-30,0,27.2,14.6
2009-07-01,0,27.8,11.9
2009-07-02,0,27.6,14.8
2009-07-03,0,23.0,12.6
2009-07-04,0,23.8,13.3
2009-07-05,0,23.3,12.5
2009-07-06,4.2,20.1,11.7
2009-07-07,7.8,18.0,11.9
2009-07-08,0,18.6,9.7
2009-07-09,0,18.2,8.8
2009-07-10,0,20.1,13.8
2009-07-11,4.8,21.8,14.3
2009-07-12,0,21.8,12.2
2009-07-13,2.4,21.0,12.7
2009-07-14,0.6,22.2,13.7
2009-07-15,0,ND,12.2
2009-07-16,7.8,22.3,14.8
2009-07-17,13.8,17.3,12.9
2009-07-18,0,20.3,11.5
2009-07-19,6.4,18.1,11.3
2009-07-20,1.8,20.3,11.8
2009-07-21,3.4,20.1,12.9
2009-07-22,0,21.7,13.1
2009-07-23,2,21.1,11.5
2009-07-24,6.6,18.7,10.7
2009-07-25,0,22.7,11.9
2009-07-26,3.4,20.0,12.8
2009-07-27,2.8,18.7,10.7
2009-07-28,0.6,21.1,13.8
2009-07-29,5,19.4,10.6
2009-07-30,8.8,16.9,9.4
2009-07-31,0.4,20.1,13.4
2009-08-01,4,21.5,10.4
2009-08-02,0,20.1,11.0
2009-08-03,0,20.7,15.0
2009-08-04,0.2,21.0,16.6
2009-08-05,4.8,25.4,16.3
2009-08-06,44.4,23.8,15.3
2009-08-07,0,19.5,12.1
2009-08-08,0,23.7,15.5
2009-08-09,0,23.2,14.3
2009-08-10,0,20.2,15.0
2009-08-11,0,24.2,15.5
2009-08-12,8,20.7,14.3
2009-08-13,0,21.0,12.8
2009-08-14,0,22.0,16.3
2009-08-15,0,24.1,13.5
2009-08-16,0,24.2,12.8
2009-08-17,ND,ND,11.9
2009-08-18,ND,ND,ND
2009-08-19,ND,ND,ND
2009-08-20,0,22.0,11.4
2009-08-21,1.4,18.5,8.4
2009-08-22,0,22.3,13.4
2009-08-23,0,26.4,13.6
2009-08-24,0,24.0,10.4
2009-08-25,0.2,20.1,13.2
2009-08-26,2,22.2,15.5
2009-08-27,0,23.3,11.9
2009-08-28,5.6,18.4,9.5
2009-08-29,0,18.3,9.6
2009-08-30,0,19.0,15.6
2009-08-31,0,24.4,13.5
2009-09-01,ND,ND,ND
2009-09-02,6,17.8,12.5
2009-09-03,0,17.1,9.0
2009-09-04,0,17.1,9.4
2009-09-05,0,18.2,12.4
2009-09-06,0.2,18.3,13.7
2009-09-07,0,20.6,16.8
2009-09-08,0,26.5,13.2
2009-09-09,0,19.2,7.3
2009-09-10,0,18.4,7.4
2009-09-11,0,19.1,8.9
2009-09-12,0,20.8,9.2
2009-09-13,0,15.7,10.9
2009-09-14,0,17.6,13.0
2009-09-15,0,17.1,12.0
2009-09-16,0,17.4,12.0
2009-09-17,0,15.7,10.6
2009-09-18,0,20.2,10.1
2009-09-19,0,21.6,12.7
2009-09-20,0,18.9,10.3
2009-09-21,0,18.5,12.0
2009-09-22,0,20.1,11.9
2009-09-23,0,18.2,8.6
2009-09-24,0,18.3,8.3
2009-09-25,0,18.5,9.0
2009-09-26,0,18.2,6.9
2009-09-27,0,20.3,10.4
2009-09-28,0,18.0,11.1
2009-09-29,0,20.9,13.4
2009-09-30,0,19.1,11.9
2009-10-01,0,15.4,6.4
2009-10-02,0,15.0,12.0
2009-10-03,0,16.7,8.1
2009-10-04,0,14.5,8.1
2009-10-05,1.6,14.4,10.7
2009-10-06,7.6,19.6,9.9
2009-10-07,0.2,13.0,4.7
2009-10-08,0,14.5,2.8
2009-10-09,2.6,13.6,7.0
2009-10-10,0.6,16.5,11.0
2009-10-11,0.2,16.0,7.2
2009-10-12,0,14.1,5.0
2009-10-13,1,15.5,9.2
2009-10-14,0,13.8,9.0
2009-10-15,0.8,14.9,10.2
2009-10-16,0.2,12.9,7.7
2009-10-17,0,11.4,5.1
2009-10-18,0,11.7,5.1
2009-10-19,0,12.0,6.3
2009-10-20,2.4,12.4,8.0
2009-10-21,2,12.5,9.3
2009-10-22,0.2,14.7,8.3
2009-10-23,0.6,16.1,10.4
2009-10-24,0.4,17.2,11.0
2009-10-25,0,15.7,10.8
2009-10-26,1.8,13.9,9.3
2009-10-27,0.2,16.6,11.0
2009-10-28,0,16.6,8.5
2009-10-29,0,16.3,9.8
2009-10-30,1.8,14.6,10.8
2009-10-31,2.6,16.4,9.5
2009-11-01,7.8,15.2,5.8
2009-11-02,1.2,11.4,6.6
2009-11-03,8.2,13.4,5.2
2009-11-04,1.4,10.8,6.1
2009-11-05,0,10.9,7.0
2009-11-06,2.4,10.3,3.5
2009-11-07,0.8,9.4,4.4
2009-11-08,0.2,10.5,3.0
2009-11-09,0.4,8.8,2.0
2009-11-10,0.6,7.8,2.8
2009-11-11,2,8.6,6.0
2009-11-12,10.4,12.8,8.2
2009-11-13,6.4,15.1,9.7
2009-11-14,3.2,11.9,6.0
2009-11-15,2.6,12.6,6.9
2009-11-16,3,13.2,7.4
2009-11-17,0,12.7,8.1
2009-11-18,0,13.8,12.4
2009-11-19,0.4,13.9,11.6
2009-11-20,2,14.1,7.4
2009-11-21,3.4,15.0,8.5
2009-11-22,2.6,10.2,7.6
2009-11-23,2.4,12.7,7.8
2009-11-24,4,13.5,8.4
2009-11-25,0,10.6,6.9
2009-11-26,0,9.1,3.9
2009-11-27,5.2,7.9,3.8
2009-11-28,10.6,7.2,3.8
2009-11-29,5.4,7.6,5.1
2009-11-30,0.2,5.7,-0.1
2009-12-01,3.4,6.9,0.1
2009-12-02,2.6,9.6,6.6
2009-12-03,3.2,7.1,2.3
2009-12-04,2.6,8.9,2.6
2009-12-05,4.8,12.2,7.5
2009-12-06,3.2,11.4,5.9
2009-12-07,1,10.5,4.8
2009-12-08,1,10.2,6.0
2009-12-09,0.4,10.6,6.2
2009-12-10,0.2,9.4,1.8
2009-12-11,0.4,5.0,2.1
2009-12-12,0.2,7.9,3.5
2009-12-13,1,5.8,1.7
2009-12-14,2.6,4.8,0.6
2009-12-15,0,2.4,-2.1
2009-12-16,2.6,3.9,-0.1
2009-12-17,0.4,3.4,-1.9
2009-12-18,3,0.1,-4.3
2009-12-19,1.2,0.8,-4.7
2009-12-20,0,0.0,-4.8
2009-12-21,0.4,1.1,-2.8
2009-12-22,1.8,-0.4,-3.6
2009-12-23,7.8,2.4,-3.4
2009-12-24,1,3.1,0.5
2009-12-25,0,5.8,0.6
2009-12-26,0.2,7.6,3.5
2009-12-27,0,5.9,0.3
2009-12-28,0,3.5,-0.9
2009-12-29,12.2,3.4,0.2
2009-12-30,4.6,3.3,1.9
2009-12-31,0,3.6,-1.6
